NOAA 16 DEB, 41223

Orbit data source: Space-Track

NOAA 16 DEB, 41223 is space debris in SSO originally from a launch on Thu, 21 Sep 2000 UTC launched from the Air Force Western Test Range (AFWTR). Debris objects in space refer to the collection of defunct objects orbiting the Earth. Examples of debris include non-operational satellites, rocket bodies, and fragments generated from explosions, collisions, or faulty payload assembly.

Loading next visibility...
Identifier
41223, 2000-055EC
Orbit
SSO
Country
Flag of USUS
Related business
Manufacturer
Unknown
Mission
Spacecraft
Bus & Motor
Unknown
Mass
Unknown
Launch date (UTC)
2000-09-21 (25 years ago)
Launch vehicle
Unknown
Launch site
Air Force Western Test Range (AFWTR)
Object type
Payload
Rocket body
Debris
Shape & HBR
Unknown shape, 0.1 m
Radar Cross Section
Small (<0.1 m²)

Expand to show TLE details & history
Last TLE update: 2 days ago

TLE from 2 days ago
0 NOAA 16 DEB
1 41223U 00055EC  26072.44242767  .00002060  00000-0  11001-2 0  9998
2 41223  98.6574  72.9659 0032379 160.0720 200.1726 14.14056923526478
Epoch: 2026-03-13T10:37Z
TLE epoch observation values (Epoch: 2026-03-13T10:37:05.750Z)
Latitude
-0.00003°
Longitude
102.61405°
Altitude
870.398 km
Speed
7.406 km/s
True Right ascension
04h 51m 51s
True Declination
0° 00' 00"
Sunlit
Object was in daylight at epoch
Visualization orbit readout
Latitude
Unknown
Longitude
Unknown
Altitude
Unknown
Speed
Unknown
Apparent Right ascension
Unknown
Apparent Declination
Unknown
Sunlit
N/A
Visualization observer readout
Local Sidereal Time
07:31:22
Azimuth
Unknown
Elevation
Unknown
Doppler factor
Unknown
Orbital elements
Apogee altitude
866.066 km
Perigee altitude
819.306 km
Semi-major axis
7,220.823 km
Eccentricity
0.00324
Inclination
98.6574°
RAAN
72.9659°
Arg. of periapsis
160.072°
True anomaly
200.04513°
Mean anomaly
200.1726°
Eccentric anomaly
200.10882°
Mean motion
3.53723 °/min
Orbital period
101.77 mins
BSTAR
0.0011001
Loading maneuver chart data...
Computing Atmospheric mass density...
Loading historical data...
Loading historical data...
Loading historical data...
Loading historical data...
Loading historical data...
Loading historical data...
Loading historical data...

Documentation

Showing up to 5 results
|